Temperature
12 12 12 12 12 12 12 12 11 11 11 11 10 10 10 10 10 10 9 9 9 9 8 8 8 8 8 8 7 7 7 7 7 6 6 6 6 5 5 5 5 5 5
11 11 11 11 11 11 11 11 11 10 10 10 10 9 9 9 9 9 9 9 8 8 8 8 8 7 7 7 7 7 6 6 6 6 5 5 5 5 4 4 4 4 4
10 10 10 10 10 10 10 10 10 10 9 9 9 9 9 8 8 8 8 8 7 7 7 7 7 7 6 6 6 6 6 6 5 5 5 4 4 4 4 4 3 3 3
10 10 10 10 10 9 9 9 9 9 9 8 8 8 8 7 7 7 7 6 6 6 6 6 6 6 6 5 5 5 5 5 5 4 4 4 4 3 3 3 3 3 3
9 9 9 9 9 9 8 8 8 8 7 7 7 7 7 7 6 6 6 6 5 5 5 5 5 5 5 5 4 4 4 4 4 4 3 3 3 3 2 2 2 2 2
9 9 9 8 8 8 8 7 7 7 7 6 6 6 6 6 6 5 5 5 5 5 4 4 4 4 4 4 4 4 4 3 3 3 3 2 2 2 2 1 1 1 1
8 8 8 8 8 7 7 6 6 6 6 6 5 5 5 5 5 5 4 4 4 4 4 3 3 3 3 3 3 3 3 2 2 2 2 2 1 1 1 1 0 0 0
8 8 7 7 7 7 6 6 5 5 5 5 4 4 4 4 4 4 3 3 3 3 3 3 2 2 2 2 2 2 2 2 1 1 1 1 1 0 0 -0 -0 -0 -0
7 7 7 7 6 6 5 5 5 4 4 4 4 3 3 3 3 3 3 2 2 2 2 2 2 2 1 1 1 1 1 1 1 1 1 0 0 -0 -0 -1 -1 -1 -1
7 7 6 6 6 5 5 4 4 4 4 3 3 3 2 2 2 2 2 2 2 2 1 1 1 1 1 1 1 1 1 0 0 0 0 -0 -0 -1 -1 -1 -1 -2 -2
6 6 6 5 5 5 4 4 3 3 3 3 2 2 2 1 1 1 1 1 1 1 1 1 1 0 0 0 0 0 -0 -0 -0 -0 -0 -1 -1 -1 -2 -2 -2 -2 -3
5 5 5 5 4 4 4 3 3 2 2 2 2 1 1 1 1 1 1 1 0 0 0 0 -0 -0 -0 -0 -0 -0 -1 -1 -1 -1 -1 -1 -1 -2 -2 -2 -3 -3 -3
5 5 4 4 4 3 3 3 2 2 2 1 1 1 1 1 0 0 0 0 -0 -0 -0 -0 -1 -1 -1 -1 -1 -1 -1 -1 -1 -1 -2 -2 -2 -2 -3 -3 -3 -3 -3
4 4 4 3 3 3 2 2 2 2 1 1 1 1 0 0 0 0 -0 -0 -1 -1 -1 -1 -1 -1 -1 -1 -1 -1 -1 -2 -2 -2 -2 -3 -3 -3 -3 -3 -3 -3 -3
3 3 3 2 2 2 2 2 1 1 1 1 1 0 0 -0 -0 -0 -1 -1 -1 -1 -1 -1 -1 -1 -1 -1 -1 -2 -2 -2 -2 -2 -3 -3 -3 -3 -3 -4 -4 -4 -4
3 2 2 2 2 1 1 1 1 1 1 0 0 -0 -0 -0 -1 -1 -1 -1 -1 -1 -2 -1 -1 -1 -1 -2 -2 -2 -2 -2 -2 -3 -3 -3 -3 -4 -4 -4 -4 -4 -4
2 2 2 1 1 1 1 1 1 0 0 0 -0 -0 -0 -1 -1 -1 -1 -1 -2 -2 -2 -2 -1 -2 -2 -2 -2 -2 -2 -3 -3 -3 -3 -4 -4 -4 -4 -4 -4 -5 -5
1 1 1 1 1 1 1 0 0 0 0 0 -0 -0 -1 -1 -1 -1 -1 -1 -2 -2 -2 -2 -2 -2 -2 -2 -2 -2 -3 -3 -3 -3 -3 -4 -4 -4 -4 -5 -5 -5 -6
1 1 0 0 0 0 0 -0 -0 -0 -0 -0 -0 -1 -1 -1 -1 -1 -1 -2 -1 -2 -2 -2 -2 -2 -2 -2 -2 -3 -3 -3 -3 -4 -4 -4 -4 -5 -5 -5 -5 -6 -6
0 -0 -0 -0 -0 -0 -0 -0 -1 -1 -1 -1 -1 -1 -1 -1 -1 -1 -1 -1 -1 -1 -2 -2 -2 -2 -2 -3 -3 -3 -3 -3 -4 -4 -4 -4 -5 -5 -5 -5 -6 -6 -6
-0 -0 -1 -1 -1 -1 -1 -1 -1 -1 -1 -1 -1 -1 -1 -1 -1 -1 -1 -1 -1 -2 -2 -2 -2 -2 -2 -3 -3 -3 -4 -4 -4 -4 -4 -5 -5 -5 -5 -6 -6 -6 -6
-1 -1 -1 -1 -1 -1 -1 -1 -2 -2 -2 -2 -2 -2 -2 -2 -2 -2 -2 -2 -1 -2 -2 -2 -2 -2 -3 -3 -3 -4 -4 -4 -4 -4 -5 -5 -5 -6 -6 -6 -6 -7 -7
-2 -2 -2 -2 -2 -2 -2 -2 -2 -2 -2 -2 -2 -2 -2 -2 -2 -2 -2 -2 -2 -2 -2 -2 -2 -3 -3 -3 -4 -4 -4 -4 -4 -5 -5 -5 -6 -6 -6 -7 -7 -7 -7
-2 -2 -2 -2 -2 -2 -2 -2 -2 -2 -2 -2 -2 -2 -2 -2 -2 -2 -2 -2 -3 -3 -3 -3 -3 -3 -3 -4 -4 -4 -4 -5 -5 -5 -6 -6 -6 -6 -7 -7 -7 -7 -7
-3 -3 -3 -3 -3 -3 -3 -3 -3 -3 -3 -3 -3 -3 -3 -3 -3 -3 -3 -3 -3 -3 -3 -3 -4 -4 -4 -4 -5 -5 -5 -5 -5 -6 -6 -6 -7 -7 -7 -7 -7 -7 -8
-3 -3 -3 -3 -3 -3 -3 -3 -3 -3 -3 -3 -3 -3 -3 -3 -3 -4 -4 -4 -4 -4 -4 -4 -4 -4 -5 -5 -5 -5 -5 -6 -6 -6 -7 -7 -7 -7 -7 -8 -8 -8 -8
Wind_Speed
5 5 5 5 5 5 5 5 4 3 3 2 2 2 1 1 1 1 1 1 2 1 1 1 1 1 1 0 1 1 1 1 3 1 2 1 2 1 2 3 3 3 3
5 6 5 5 6 5 5 4 4 4 3 3 2 2 1 1 1 1 1 1 1 1 1 2 1 1 1 0 0 1 1 1 2 2 1 1 1 1 1 1 2 2 2
6 6 6 5 5 5 5 5 4 4 3 3 2 2 2 2 2 2 2 2 2 2 2 2 1 2 1 1 1 0 0 0 1 2 2 1 1 1 1 1 1 1 2
6 6 6 5 5 5 5 5 4 4 3 3 3 3 3 3 3 3 3 3 3 3 3 3 2 2 1 1 1 1 1 1 1 2 2 1 1 1 1 0 1 1 2
6 6 6 6 5 5 5 5 4 4 3 3 3 3 3 2 2 2 2 3 4 4 3 3 4 4 4 3 2 2 1 1 2 2 1 1 1 1 1 0 0 1 1
6 6 6 6 6 5 5 4 4 4 3 3 3 3 2 2 3 3 3 3 3 3 3 3 3 3 4 4 4 4 3 2 2 2 1 1 1 1 1 1 1 1 2
6 6 6 6 6 5 5 5 4 4 3 3 3 3 3 3 4 3 4 3 3 3 3 2 2 3 3 2 4 5 5 5 3 2 2 1 1 1 2 1 0 0 2
6 6 6 6 6 5 5 4 4 3 3 3 3 3 3 3 4 4 4 2 2 2 2 2 2 2 2 2 3 3 2 2 3 2 2 1 2 2 2 2 2 1 2
6 6 7 7 6 6 5 5 4 4 3 3 3 3 3 3 5 5 4 2 2 2 2 2 2 2 3 3 2 2 1 1 3 3 3 2 1 1 1 2 1 1 1
6 6 6 6 6 6 6 5 4 4 4 3 3 3 3 3 5 5 4 2 2 2 1 1 2 2 3 3 2 2 1 1 1 1 1 1 0 1 0 2 3 2 1
5 5 5 5 5 5 5 4 5 5 4 4 3 3 3 4 5 6 5 2 2 2 2 2 2 4 4 3 2 2 2 1 1 1 1 1 0 0 0 1 2 2 3
5 4 5 5 5 5 5 5 5 5 5 4 4 3 3 3 5 6 7 6 4 3 2 2 3 4 4 4 3 3 3 1 0 1 1 1 1 1 1 1 1 2 4
4 4 4 5 4 5 6 6 5 5 5 4 4 4 3 3 4 8 8 8 7 4 3 4 4 5 4 3 4 5 3 1 2 2 3 3 2 2 1 0 2 4 6
3 4 4 5 5 5 5 5 5 6 5 5 5 5 4 4 4 4 4 5 6 5 3 4 5 5 4 5 5 4 3 3 3 3 3 2 2 1 2 2 2 2 3
3 3 4 5 5 5 5 5 6 6 6 6 5 5 5 5 7 10 6 5 4 5 4 2 2 2 3 3 3 3 3 3 4 3 3 3 3 3 3 3 3 3 4
3 3 3 4 4 4 4 3 5 6 8 9 8 7 6 7 8 11 11 11 10 9 6 3 4 4 5 5 5 4 4 5 4 4 4 4 4 4 4 4 4 4 6
2 3 3 3 4 4 4 5 4 4 7 9 10 10 10 9 10 10 11 11 11 10 6 5 5 5 5 5 5 5 5 5 5 5 5 5 5 5 5 5 5 6 7
2 3 3 3 3 4 4 4 4 4 4 4 7 12 12 12 11 11 11 9 7 7 5 6 6 6 6 6 6 5 5 5 5 5 5 5 5 5 6 6 6 7 7
2 2 2 2 3 3 4 4 4 5 5 4 3 5 11 11 11 12 11 6 6 7 7 7 7 6 6 6 6 6 6 6 6 6 6 6 6 6 7 7 7 11 10
2 3 2 2 3 3 3 4 4 5 5 5 5 5 4 5 5 6 7 6 7 7 7 7 7 7 7 7 6 6 6 6 7 7 7 7 7 7 8 9 8 8 8
2 2 3 3 3 3 3 4 4 4 5 5 5 6 8 6 6 7 6 7 8 8 7 7 7 7 7 7 7 7 8 7 7 7 7 7 7 8 8 8 9 9 9
2 3 3 3 3 3 4 4 4 5 5 5 4 5 9 6 5 6 6 7 7 7 6 6 7 7 7 7 7 8 8 8 8 8 8 8 8 8 8 8 9 9 9
3 3 3 3 3 5 5 4 4 5 5 5 5 4 4 5 5 5 6 6 5 6 6 6 6 6 7 9 9 8 9 9 8 8 8 8 8 8 8 9 10 10 10
3 4 4 3 3 3 4 4 4 5 5 5 5 5 5 5 6 6 6 5 5 5 5 6 7 8 9 9 10 11 12 13 12 11 10 10 9 9 9 9 10 11 11
3 4 4 4 4 4 4 4 4 4 5 5 5 5 5 5 5 5 5 5 5 5 6 6 7 8 9 11 11 12 14 16 15 13 11 9 10 10 10 10 10 11 11
4 4 4 3 3 4 4 4 4 4 4 5 4 5 5 5 5 5 5 5 5 5 6 6 8 9 10 11 12 14 15 16 16 17 13 9 10 10 10 10 12 11 12
Wind_Direction
124 117 114 110 107 106 107 110 111 109 109 108 107 106 119 166 186 190 203 187 187 182 174 173 183 147 169 206 218 219 230 221 228 149 98 104 109 93 47 46 50 53 44
123 116 114 110 107 106 106 103 97 95 92 91 93 109 120 95 68 127 137 123 149 164 164 155 154 125 125 94 162 186 209 214 193 194 143 126 105 103 71 46 34 39 41
124 122 119 116 114 113 112 106 99 97 96 92 90 98 91 76 65 66 87 97 98 94 91 103 103 117 121 104 110 112 256 220 127 152 139 113 104 111 58 11 10 11 3
130 130 128 122 118 114 111 106 102 100 101 97 91 85 79 71 71 73 84 94 93 83 74 75 71 89 110 132 117 84 60 83 95 112 119 121 121 125 112 57 328 323 320
131 130 127 120 115 114 112 111 109 105 104 102 97 91 87 81 82 91 102 110 109 100 86 80 73 75 72 76 85 75 79 102 110 117 128 114 136 127 203 185 345 322 317
137 137 132 129 127 128 128 126 124 121 116 111 108 105 100 98 105 113 115 113 122 127 122 110 102 84 83 78 77 76 82 108 133 138 153 170 190 172 125 97 68 40 304
144 144 142 141 141 143 141 138 140 137 126 120 120 118 114 114 126 126 122 121 129 131 132 127 119 111 91 81 75 69 62 62 79 133 150 182 164 147 122 97 93 230 241
154 154 151 150 151 149 148 152 149 139 139 140 136 136 132 136 141 139 134 116 116 122 126 131 133 127 115 103 90 71 59 45 53 66 106 98 96 101 132 161 185 275 288
163 164 160 159 159 159 162 160 151 145 148 150 147 155 154 154 156 154 149 133 137 141 130 126 129 144 161 143 116 103 71 40 65 81 87 87 89 101 113 98 90 50 310
168 162 157 160 164 167 166 159 153 154 161 158 163 174 173 171 177 178 175 163 165 167 160 170 181 176 181 173 144 152 167 187 97 55 25 2 334 204 175 154 168 184 229
139 142 150 155 159 160 159 157 156 157 158 166 176 187 185 184 187 192 195 178 183 183 189 200 202 196 201 203 197 188 213 195 174 206 247 244 202 158 132 156 167 177 206
130 143 151 153 157 157 157 161 161 161 167 179 187 196 199 195 194 202 206 205 198 185 196 199 201 206 218 219 222 225 226 225 188 222 236 235 227 221 202 164 230 247 242
139 155 162 161 162 164 167 170 170 174 183 191 194 205 209 198 204 213 216 214 213 202 196 205 212 220 232 231 235 237 231 213 214 231 241 243 222 196 172 224 279 276 275
166 176 176 172 174 177 177 178 182 190 195 198 202 208 208 204 202 203 208 216 214 214 211 219 227 235 232 230 240 241 218 212 215 224 234 229 197 195 219 224 246 269 282
183 191 187 184 183 187 190 194 199 204 200 201 206 203 203 215 215 206 197 201 196 200 188 190 205 216 220 224 225 223 217 223 235 224 225 228 228 228 237 230 234 246 255
199 198 193 190 190 190 193 207 214 213 215 217 215 211 216 218 215 212 214 216 216 211 203 207 218 222 224 226 227 227 222 223 222 221 224 227 232 237 247 244 240 245 258
223 213 201 197 198 200 197 200 214 225 228 231 230 228 226 224 222 219 220 220 222 219 218 217 224 227 229 228 227 225 227 223 214 217 224 228 233 240 245 249 248 252 258
241 225 217 213 210 209 207 206 205 210 222 235 232 232 232 230 227 225 224 218 222 221 219 223 228 229 228 228 229 230 231 226 220 223 226 229 229 235 243 247 247 249 256
254 238 224 220 221 218 212 211 214 218 224 229 223 230 231 232 231 231 225 218 218 221 222 226 228 228 229 228 229 227 227 229 227 225 230 230 230 233 241 245 248 254 256
262 252 241 228 224 227 221 218 221 224 228 228 229 227 211 209 219 223 218 218 224 227 225 227 228 228 227 228 228 228 231 232 231 232 234 234 231 232 240 244 246 250 252
274 261 243 238 230 227 230 228 228 230 234 238 239 233 220 216 223 225 224 224 227 230 230 229 229 227 227 226 227 229 231 235 234 234 236 236 234 237 240 243 246 249 253
272 263 252 244 241 236 239 234 231 234 238 244 250 248 243 234 231 234 233 234 232 230 229 228 231 229 226 225 226 229 234 236 235 235 235 236 237 239 241 244 247 248 250
271 263 260 254 247 251 250 241 239 241 244 246 247 241 238 235 238 241 243 243 241 238 234 231 234 236 234 233 230 227 233 237 235 232 235 239 240 241 241 243 245 249 252
274 266 263 261 252 248 249 249 247 247 247 247 246 245 241 240 243 246 246 245 245 244 240 238 239 242 242 242 241 239 241 243 240 237 233 237 241 244 243 245 247 249 251
279 276 271 263 257 255 254 254 253 253 255 255 253 253 252 250 250 252 251 248 247 246 246 245 247 249 251 250 249 249 251 251 250 248 242 238 241 241 244 248 250 252 251
275 274 276 273 267 264 261 259 258 259 259 262 260 258 258 257 256 255 254 253 254 253 253 249 249 253 258 260 260 261 262 262 260 258 252 247 244 245 243 248 248 250 254
Height
1489 1491 1494 1496 1498 1500 1502 1503 1505 1506 1507 1508 1509 1509 1510 1510 1510 1510 1510 1510 1510 1510 1510 1510 1510 1510 1510 1510 1510 1510 1511 1511 1510 1510 1510 1510 1509 1509 1509 1508 1507 1507 1506
1485 1488 1490 1492 1494 1496 1498 1499 1500 1501 1502 1503 1504 1504 1505 1505 1505 1505 1505 1505 1505 1505 1505 1505 1505 1505 1505 1505 1505 1505 1505 1505 1506 1505 1505 1505 1505 1504 1504 1504 1503 1502 1502
1482 1485 1487 1489 1490 1492 1494 1495 1496 1497 1498 1498 1499 1500 1500 1500 1500 1500 1500 1500 1500 1500 1500 1500 1500 1500 1500 1500 1500 1500 1500 1500 1500 1500 1500 1500 1500 1500 1500 1499 1498 1498 1498
1480 1482 1484 1485 1487 1488 1490 1491 1492 1493 1494 1494 1495 1495 1495 1496 1496 1496 1496 1496 1496 1496 1496 1496 1496 1496 1496 1496 1495 1495 1496 1496 1496 1496 1496 1495 1495 1495 1495 1495 1494 1494 1494
1477 1479 1481 1483 1484 1485 1487 1487 1489 1490 1490 1490 1491 1491 1491 1491 1492 1492 1492 1492 1492 1492 1492 1492 1492 1492 1492 1491 1492 1491 1492 1491 1492 1492 1492 1491 1491 1491 1491 1491 1490 1490 1490
1475 1477 1478 1480 1481 1482 1483 1484 1485 1486 1486 1487 1487 1487 1487 1487 1487 1487 1488 1488 1488 1488 1488 1488 1488 1488 1488 1488 1488 1488 1488 1488 1488 1488 1488 1488 1488 1488 1488 1487 1487 1487 1486
1473 1474 1476 1477 1478 1479 1480 1481 1482 1482 1483 1483 1483 1483 1483 1483 1483 1484 1484 1484 1484 1484 1484 1484 1484 1484 1484 1485 1484 1484 1484 1484 1484 1485 1484 1484 1484 1484 1484 1484 1484 1484 1483
1470 1471 1473 1474 1475 1476 1477 1478 1479 1479 1479 1479 1480 1480 1480 1480 1480 1480 1481 1481 1481 1481 1481 1481 1481 1481 1481 1481 1481 1481 1481 1481 1481 1481 1481 1481 1482 1481 1481 1481 1481 1480 1480
1467 1469 1470 1471 1472 1473 1474 1474 1475 1475 1476 1476 1476 1476 1476 1477 1477 1477 1477 1478 1478 1478 1478 1478 1478 1478 1478 1478 1478 1478 1479 1479 1479 1478 1478 1478 1478 1478 1478 1478 1478 1477 1476
1464 1466 1467 1468 1469 1470 1470 1471 1471 1472 1472 1473 1473 1473 1473 1473 1474 1474 1474 1475 1475 1475 1475 1475 1476 1476 1476 1476 1476 1476 1476 1476 1476 1476 1476 1476 1475 1475 1475 1475 1474 1474 1473
1462 1463 1464 1465 1465 1466 1467 1467 1468 1468 1469 1469 1469 1470 1470 1470 1471 1471 1471 1472 1472 1472 1472 1473 1473 1473 1473 1473 1473 1473 1473 1473 1473 1473 1473 1472 1472 1472 1472 1471 1471 1471 1470
1459 1459 1460 1461 1462 1462 1463 1464 1464 1465 1465 1465 1466 1466 1467 1467 1468 1468 1468 1469 1469 1469 1469 1470 1470 1470 1470 1470 1470 1470 1470 1470 1470 1470 1470 1469 1469 1469 1469 1468 1468 1467 1467
1455 1456 1457 1457 1458 1459 1459 1460 1460 1461 1461 1462 1462 1463 1463 1464 1465 1465 1465 1466 1466 1466 1466 1466 1467 1467 1467 1467 1467 1467 1467 1467 1467 1467 1466 1466 1466 1465 1465 1465 1464 1463 1463
1452 1453 1453 1454 1454 1455 1456 1456 1457 1457 1458 1458 1459 1459 1460 1460 1461 1462 1462 1462 1462 1463 1463 1463 1463 1464 1464 1464 1464 1464 1464 1464 1464 1463 1463 1463 1462 1462 1461 1460 1459 1459 1458
1449 1449 1449 1450 1451 1451 1452 1453 1453 1454 1454 1455 1455 1456 1456 1456 1457 1458 1458 1458 1459 1459 1459 1460 1460 1460 1460 1460 1461 1461 1461 1461 1460 1460 1459 1458 1458 1457 1457 1456 1455 1454 1453
1445 1445 1446 1446 1447 1447 1448 1449 1449 1450 1450 1451 1451 1452 1452 1453 1453 1453 1454 1454 1455 1455 1455 1455 1456 1456 1456 1456 1456 1457 1457 1456 1456 1456 1455 1454 1453 1453 1452 1451 1450 1449 1447
1442 1442 1442 1443 1443 1443 1444 1444 1445 1446 1447 1447 1447 1447 1448 1448 1449 1449 1450 1450 1451 1451 1451 1451 1451 1452 1452 1452 1452 1452 1452 1452 1451 1451 1450 1449 1449 1448 1447 1446 1445 1443 1442
1438 1438 1439 1439 1439 1440 1440 1440 1441 1441 1442 1442 1443 1443 1444 1444 1444 1445 1446 1446 1446 1446 1446 1447 1447 1447 1447 1447 1447 1447 1447 1447 1446 1446 1445 1444 1443 1442 1441 1440 1439 1437 1436
1435 1435 1435 1435 1435 1436 1436 1436 1436 1437 1437 1438 1438 1439 1439 1439 1440 1441 1441 1441 1441 1442 1442 1442 1442 1442 1442 1442 1442 1442 1441 1441 1440 1440 1439 1438 1437 1436 1435 1434 1433 1431 1430
1431 1431 1431 1431 1431 1431 1431 1432 1432 1432 1433 1433 1433 1434 1435 1435 1435 1435 1436 1436 1436 1436 1437 1437 1436 1436 1436 1436 1436 1436 1435 1435 1434 1433 1433 1432 1431 1430 1428 1427 1426 1425 1423
1427 1427 1427 1427 1427 1427 1427 1427 1427 1427 1428 1428 1428 1429 1430 1430 1430 1430 1431 1431 1431 1431 1431 1431 1431 1430 1430 1430 1429 1429 1428 1428 1427 1426 1426 1425 1424 1423 1421 1420 1419 1418 1416
1423 1423 1423 1422 1422 1422 1422 1422 1423 1423 1423 1423 1423 1424 1424 1424 1424 1425 1425 1425 1425 1425 1425 1425 1424 1424 1423 1423 1422 1422 1421 1420 1420 1419 1418 1417 1416 1415 1414 1413 1412 1411 1409
1419 1419 1418 1418 1418 1418 1418 1418 1418 1418 1418 1418 1418 1418 1418 1418 1419 1419 1419 1419 1419 1418 1418 1418 1417 1417 1416 1416 1415 1414 1414 1413 1413 1412 1411 1409 1408 1407 1406 1405 1404 1403 1402
1415 1415 1414 1414 1414 1414 1413 1413 1413 1413 1413 1413 1413 1413 1413 1413 1413 1413 1412 1412 1412 1411 1411 1410 1410 1409 1409 1408 1408 1407 1406 1405 1405 1403 1403 1401 1400 1399 1398 1397 1396 1395 1394
1411 1411 1410 1410 1410 1409 1409 1409 1409 1408 1408 1408 1408 1408 1408 1407 1407 1406 1406 1406 1405 1404 1404 1403 1403 1402 1401 1401 1400 1399 1398 1398 1397 1395 1394 1393 1392 1391 1390 1389 1388 1387 1386
1407 1406 1406 1406 1405 1405 1405 1404 1404 1404 1403 1403 1403 1402 1402 1401 1401 1400 1400 1399 1398 1397 1397 1396 1395 1395 1394 1393 1392 1392 1391 1390 1389 1388 1386 1385 1384 1383 1382 1381 1380 1379 1378